Wan Hai 510 — 9VJJ8 — position and weather

sailwx.info

Track history (hours):
 
Tides and Currents Weather Stations Pressure Air Temp Water Temp Dewpoint Dewpoint Depression Visibility Wind Speed Wind Dir Waves Ship Positions

Wan Hai 510

Last reported at 2014-Oct-26 07:32 UTC. Time now 2014-Oct-26 07:48 UTC.
Position N 22°32' E 120°17'.

Length 269 m; draft 9.3 m.

Type: Cargo ship. MMSI: 565741000.

Date/timePositionNaut miles runAvg speedWind from/ knotsBaromVisibWave heightAir tempDewpointWater temp
2014-Oct-26 07:32N 22°32' E 120°17'0 0.0
2014-Oct-26 06:26N 22°32' E 120°17'0 0.0
2014-Oct-26 05:26N 22°32' E 120°17'0 0.0
2014-Oct-26 04:32N 22°32' E 120°17'0 0.0
2014-Oct-26 03:32N 22°32' E 120°17'0 0.0
2014-Oct-26 02:26N 22°32' E 120°17'0 0.0
2014-Oct-26 01:27N 22°32' E 120°17'5 5.6
2014-Oct-26 00:33N 22°29' E 120°13'1614.5
2014-Oct-25 23:26N 22°16' E 120°02'1414.6
2014-Oct-25 22:30N 22°05' E 119°53'1414.7
2014-Oct-25 21:32N 21°54' E 119°43'1514.9
2014-Oct-25 20:32N 21°42' E 119°34'  
2014-Oct-22 03:25N 01°16' E 103°51'0 0.0
2014-Oct-22 02:19N 01°16' E 103°51'0 0.0
2014-Oct-22 01:13N 01°16' E 103°51'0 0.0
2014-Oct-22 00:31N 01°16' E 103°51'0 0.0
2014-Oct-21 22:31N 01°16' E 103°51'0 0.0
2014-Oct-21 21:22N 01°16' E 103°51'0 0.0
2014-Oct-21 20:25N 01°16' E 103°51'0 0.0
2014-Oct-21 18:31N 01°16' E 103°51'0 0.5
2014-Oct-21 17:33N 01°15' E 103°51'4 3.8
2014-Oct-21 16:33N 01°13' E 103°54'6 5.9
2014-Oct-21 15:33N 01°10' E 103°48'7 6.5
2014-Oct-21 14:30N 01°05' E 103°43'  
Track history (hours):
 
Tides and Currents Weather Stations Pressure Air Temp Water Temp Dewpoint Dewpoint Depression Visibility Wind Speed Wind Dir Waves Ship Positions

Wan Hai 510

Last reported at 2014-Oct-26 07:32 UTC. Time now 2014-Oct-26 07:48 UTC.
Position N 22°32' E 120°17'.

Length 269 m; draft 9.3 m.

Type: Cargo ship. MMSI: 565741000.

Date/timePositionNaut miles runAvg speedWind from/ knotsBaromVisibWave heightAir tempDewpointWater temp
2014-Oct-26 07:32N 22°32' E 120°17'0 0.0
2014-Oct-26 06:26N 22°32' E 120°17'0 0.0
2014-Oct-26 05:26N 22°32' E 120°17'0 0.0
2014-Oct-26 04:32N 22°32' E 120°17'0 0.0
2014-Oct-26 03:32N 22°32' E 120°17'0 0.0
2014-Oct-26 02:26N 22°32' E 120°17'0 0.0
2014-Oct-26 01:27N 22°32' E 120°17'5 5.6
2014-Oct-26 00:33N 22°29' E 120°13'1614.5
2014-Oct-25 23:26N 22°16' E 120°02'1414.6
2014-Oct-25 22:30N 22°05' E 119°53'1414.7
2014-Oct-25 21:32N 21°54' E 119°43'1514.9
2014-Oct-25 20:32N 21°42' E 119°34'  
2014-Oct-22 03:25N 01°16' E 103°51'0 0.0
2014-Oct-22 02:19N 01°16' E 103°51'0 0.0
2014-Oct-22 01:13N 01°16' E 103°51'0 0.0
2014-Oct-22 00:31N 01°16' E 103°51'0 0.0
2014-Oct-21 22:31N 01°16' E 103°51'0 0.0
2014-Oct-21 21:22N 01°16' E 103°51'0 0.0
2014-Oct-21 20:25N 01°16' E 103°51'0 0.0
2014-Oct-21 18:31N 01°16' E 103°51'0 0.5
2014-Oct-21 17:33N 01°15' E 103°51'4 3.8
2014-Oct-21 16:33N 01°13' E 103°54'6 5.9
2014-Oct-21 15:33N 01°10' E 103°48'7 6.5
2014-Oct-21 14:30N 01°05' E 103°43'  

Dump ship's entire track history